This is the latest recevied weather packets stored in our database for station/object N0NB. If no packets are shown the sender has not sent any weather packets the latest 10 day(s).
| Time | Temp. | Humidity | Pressure | Rain* | Wind** | Luminosity | Snow |
|---|---|---|---|---|---|---|---|
| 1778095217 | 14.44° C | 34% | 1018.2 hPa | 0 mm | - | 816 W/m² | - |
| 1778094616 | 14.44° C | 33% | 1018.1 hPa | 0 mm | - | 559 W/m² | - |
| 1778094016 | 14.44° C | 32% | 1018.2 hPa | 0 mm | - | 635 W/m² | - |
| 1778093416 | 14.44° C | 32% | 1018.3 hPa | 0 mm | - | 841 W/m² | - |
| 1778092816 | 13.89° C | 35% | 1018.5 hPa | 0 mm | - | 598 W/m² | - |
| 1778092216 | 13.89° C | 33% | 1018.3 hPa | 0 mm | - | 557 W/m² | - |
| 1778091616 | 13.89° C | 32% | 1018.3 hPa | 0 mm | - | 628 W/m² | - |
| 1778091016 | 13.89° C | 32% | 1018.3 hPa | 0 mm | - | 520 W/m² | - |
| 1778090416 | 14.44° C | 35% | 1018.4 hPa | 0 mm | - | 927 W/m² | - |
| 1778089816 | 13.89° C | 33% | 1018.6 hPa | 0 mm | - | 878 W/m² | - |
| 1778089216 | 13.33° C | 35% | 1018.5 hPa | 0 mm | - | 698 W/m² | - |
| 1778088616 | 13.89° C | 40% | 1018.7 hPa | 0 mm | - | 693 W/m² | - |
| 1778088016 | 13.33° C | 38% | 1018.7 hPa | 0 mm | - | 653 W/m² | - |
| 1778087416 | 13.33° C | 37% | 1018.9 hPa | 0 mm | - | 798 W/m² | - |
| 1778086816 | 13.33° C | 36% | 1018.9 hPa | 0 mm | - | 792 W/m² | - |
| 1778086216 | 12.78° C | 36% | 1018.9 hPa | 0 mm | - | 818 W/m² | - |
| 1778085616 | 12.78° C | 36% | 1019 hPa | 0 mm | - | 774 W/m² | - |
| 1778085016 | 12.78° C | 35% | 1019.1 hPa | 0 mm | - | 771 W/m² | - |
| 1778084416 | 12.78° C | 41% | 1019.2 hPa | 0 mm | - | 759 W/m² | - |
| 1778083816 | 12.78° C | 43% | 1019.1 hPa | 0 mm | - | 696 W/m² | - |
| 1778083216 | 12.22° C | 39% | 1019 hPa | 0 mm | - | 746 W/m² | - |
| 1778082616 | 12.22° C | 40% | 1019 hPa | 0 mm | - | 686 W/m² | - |
| 1778082016 | 11.67° C | 46% | 1018.9 hPa | 0 mm | - | 561 W/m² | - |
| 1778081416 | 11.11° C | 48% | 1019 hPa | 0 mm | - | 351 W/m² | - |
| 1778080816 | 10.56° C | 45% | 1018.9 hPa | 0 mm | - | 410 W/m² | - |
* Rain latest hour (hover to see other rain measurements)
** Current wind speed in m/s (hover to see current wind gust speed)